Regional Weather Roundup
Issued by NWS Austin/San Antonio, TX

Home | Current Version | Previous Version | Text Only | Print | Product List | Glossary On
Versions: 1 2 3 4 5 6 7 8 9 10 11 12 13 14 15 16 17 18 19 20 21 22 23 24 25 26 27 28 29 30 31 32 33 34 35 36 37 38 39 40 41 42 43 44 45 46 47 48 49 50
000
ASUS44 KEWX 240202
RWREWX
SOUTH TEXAS REGIONAL WEATHER ROUNDUP
NATIONAL WEATHER SERVICE AUSTIN/SAN ANTONIO TX
900 PM CDT FRI JUN 23 2017

NOTE: "FAIR" INDICATED FEW OR NO CLOUDS BELOW 12,000 FEET WITH NO
SIGNIFICANT WEATHER AND/OR OBSTRUCTIONS TO VISIBILITY.

* - THESE STATIONS ARE NOT NWS OR FAA STATIONS...AND ARE NOT SUBJECT
    TO NWS AND FAA QUALITY CONTROL.

TXZ171-172-183>190-240300-
TEXAS HILL COUNTRY AND EDWARDS PLATEAU

CITY           SKY/WX    TMP DP  RH WIND       PRES   REMARKS
JUNCTION       CLEAR     96  64  34 SE9       29.82R HX  98
*LLANO         CLEAR     97  66  36 SE6       29.82R HX 100
BURNET         CLEAR     92  68  45 SE7       29.84R HX  96
*HORSESHOE BAY CLEAR     92  67  44 MISG      29.81R HX  95
*KERRVILLE     CLEAR     92  70  48 SE7       29.84R HX  97
*FREDERICKSBRG CLEAR     91  63  39 SE6       29.85R HX  91
*ROCKSPRINGS   CLEAR     91  64  40 S9        29.88R HX  93
*BOERNE STAGE  CLEAR     88  68  51 SE7       29.85R HX  91
*CASTROVILLE   CLEAR     92  66  42 SE9       29.81R HX  94
HONDO          CLEAR     94  72  48 SE17G24   29.79R HX 102
*UVALDE        CLEAR     94  67  42 E9        29.77R HX  97
DEL RIO        CLEAR     98  62  30 E10       29.71R HX  99
LAUGHLIN AFB   NOT AVBL
CARRIZO SPRGS  CLEAR     99  63  30 SE7       29.70R HX 100
*EAGLE PASS    CLEAR     99  63  30 E10       29.71R HX 100
$$

TXZ173-191>194-202-209-217>225-228-240300-
CENTRAL AND SOUTH CENTRAL TEXAS

CITY           SKY/WX    TMP DP  RH WIND       PRES   REMARKS
GEORGETOWN     CLEAR     93  70  46 SE9       29.81R HX  99
AUSTIN/BERGSTM PTCLDY    93  71  48 SE14      29.80R HX 100
AUSTIN/MABRY   CLEAR     94  69  44 SE12      29.81R HX  99
*AUSTIN/EXEC     N/A     90  72  55 SE12      29.82R HX  96
*LAGO VISTA    CLEAR     91  69  47 SE7       29.84R HX  96
SAN MARCOS     CLEAR     90  72  55 SE15G22   29.82R HX  96
NEW BRAUNFELS  CLEAR     90  71  53 SE14      29.80R HX  96
RANDOLPH AFB   CLEAR     89  73  59 SE12      29.82R HX  97
PT SAN ANTONIO NOT AVBL
SAN ANTONIO    PTCLDY    91  70  49 SE18      29.81R HX  96
STINSON FIELD  CLEAR     92  71  50 SE14      29.78R HX  98
*LA GRANGE     PTCLDY    89  75  63 SE8       29.82R HX  98
*GIDDINGS      PTCLDY    89  70  54 SE9       29.83R HX  94
*GONZALES      PTCLDY    88  74  64 SE13G20   29.82R HX  96
$$

TXZ163>164-176>182-195>201-210>213-226-227-235-240300-
SOUTHEAST TEXAS

CITY           SKY/WX    TMP DP  RH WIND       PRES   REMARKS
COLLEGE STN    PTCLDY    86  75  69 SE7       29.82R HX  95
*BRYAN         PTCLDY    85  74  70 SE6       29.84R HX  93
*CALDWELL      NOT AVBL
*CROCKETT      PTCLDY    84  77  79 CALM      29.87S HX  94
*BRENHAM       PTCLDY    88  74  62 S6        29.84R HX  97
HUNTSVILLE     CLEAR     87  76  69 VRB3      29.86R HX  97
CONROE         CLEAR     83  76  79 SE8       29.85R HX  91
HOUSTON BUSH   PTCLDY    85  74  69 S12       29.85R HX  92
HOUSTON HOBBY  PTCLDY    84  76  76 S8        29.86R HX  93
*HOUSTON SW AP CLEAR     80  76  86 CALM      29.87R
PEARLAND       CLEAR     85  77  77 S6        29.87R HX  95
HOUSTON HOOKS  CLEAR     86  75  69 VRB5      29.84R HX  95
ELLINGTON FLD  NOT AVBL
SUGAR LAND     CLEAR     85  76  74 SE14      29.85R HX  94
*HOUSTON EXEC  CLEAR     84  75  74 S12       29.85R HX  92
*CLEVELAND MUN CLEAR     82  77  85 S5        29.87R
*WHARTON       PTCLDY    82  74  77 SE9       29.85R
*COLUMBUS      FAIR      84  73  70 SE6       29.85R HX  90
*EAGLE LAKE    PTCLDY    84  78  83 S7        29.84R HX  94
$$

TXZ214>216-236>238-240300-
THE UPPER TEXAS COAST

CITY           SKY/WX    TMP DP  RH WIND       PRES   REMARKS
*ORANGE        PTCLDY    82  79  90 S6        29.90R HX  92
PORT ARTHUR    CLEAR     80  77  90 S7        29.88R
GALVESTON      CLEAR     83  81  94 S12       29.87R HX  97
ANGLETON       CLEAR     82  78  88 S7        29.86R HX  91
*BAY CITY      PTCLDY    83  77  83 SE3       29.85R HX  92
PALACIOS       PTCLDY    81  77  88 MISG      29.84R
$$

TXZ229>234-239>247-240300-
TEXAS COASTAL BEND AND RIO GRANDE PLAINS

CITY           SKY/WX    TMP DP  RH WIND       PRES   REMARKS
VICTORIA       PTCLDY    85  75  72 SE10      29.83R HX  93
*BEEVILLE      MOCLDY    85  77  78 SE10      29.81R HX  95
ROCKPORT       PTCLDY    85  77  77 SE16      29.80R HX  95
*PORT ARANSAS  PTCLDY    84  77  79 SE16G22   29.81R HX  94
*PORT LAVACA   PTCLDY    82  79  89 SE8       29.84R HX  93
*INGLESIDE     MOCLDY    85  78  77 MISG      29.81R HX  97
CORPUS CHRISTI MOCLDY    86  78  77 SE13G21   29.80R HX  98
CORPUS NAS     NOT AVBL
*ROBSTOWN      CLEAR     85  77  78 SE10G20   29.80R HX  95
ALICE          LGT RAIN  84  76  76 SE14G22   29.78R HX  93
KINGSVILLE NAS PTCLDY    85  79  82 SE15G23   29.78R HX  98
COTULLA        PTCLDY    95  71  45 SE20      29.74R HX 102
*FAITH RANCH   CLEAR    100  61  27 SE10G20   29.71R HX 101
LAREDO         CLEAR     98  68  37 E16       29.72R HX 103
$$

TXZ248>255-240300-
DEEP SOUTH TEXAS

CITY           SKY/WX    TMP DP  RH WIND       PRES   REMARKS
BROWNSVILLE    PTCLDY    84  79  85 SE17      29.79R HX  96
PORT ISABEL    MOCLDY    85  79  82 SE20G28   29.77R HX  98
*SOUTH PADRE   NOT AVBL
HARLINGEN      CLEAR     85  78  80 SE17G24   29.77R HX  96
*HEBBRONVILLE  CLEAR     91  74  56 SE15G24   29.77R HX 101
MCALLEN        PTCLDY    89  74  60 SE15G25   29.78R HX  98
*WESLACO       CLOUDY    86  75  68 SE13      29.77R HX  94
FALFURRIAS     CLEAR     86  77  73 E12G22    29.77R HX  97
EDINBURG       CLEAR     89  73  59 SE14G22   29.77R HX  97
*ZAPATA        NOT AVBL
$$

TXZ213>215-236>238-242>244-246-247-251-254-255-240300-
CMAN STATIONS

STATION/POSITION TIME  TEMP    WIND        PRES    WAVE
                       AIR SEA DIR/SP/G            HT/PER
                 (UTC) (F)     (DEG/KT/KT) (MB)    (FT/S)
SABINE PASS      0130   83 85  170/  7/ 10 1013.2
SEA RIM ST PARK  0100   82     180/  8/ 10 1011.9
NORTH JETTY/GLS  0130      85  150/ 10/ 12 1010.8
EAGLE POINT      0130   83 84  180/ 10/ 12 1011.2
MORGANS POINT    0130   84 85  160/  6/  9 1010.9
MISSION/ARANSAS  0100          130/ 16       N/A
PORT O`CONNOR    0130   84     130/ 13/ 15 1009.7
PORT ARANSAS     0100   84 87  130/ 18/ 20 1008.8
MALAQUITE BEACH  0130   85 87  130/ 20/ 23 1007.9
BAFFIN BAY       0130   85 88              1008.6
PORT ISABEL      0130   84 88              1008.3
$$




USA.gov is the U.S. government's official web portal to all federal, state and local government web resources and services.